| time (UTC) | temp F | wind direction | speed knots | gust knots | rain 1hr in | rain 24hr in | rain mn in | humidity % | barometer mb |
| 20260510164349 | 76 | 45 | 1.7 | 6.1 | 0.00 | 0.00 | 0.00 | 62 | 1015.4 |
| 20260510163916 | 77 | 83 | 6.1 | 6.1 | 0.00 | 0.00 | 0.00 | 61 | 1015.6 |
| 20260510163322 | 78 | 189 | 3.5 | 5.2 | 0.00 | 0.00 | 0.00 | 50 | 1015.5 |
| 20260510162749 | 77 | 185 | 2.6 | 9.6 | 0.00 | 0.00 | 0.00 | 49 | 1015.5 |
| 20260510162249 | 78 | 166 | 1.7 | 9.6 | 0.00 | 0.00 | 0.00 | 52 | 1015.6 |
| 20260510161948 | 77 | 214 | 5.2 | 11.3 | 0.00 | 0.00 | 0.00 | 51 | 1015.6 |
| 20260510161409 | 77 | 231 | 3.5 | 11.3 | 0.00 | 0.00 | 0.00 | 51 | 1015.5 |
| 20260510160649 | 77 | 301 | 1.7 | 6.1 | 0.00 | 0.00 | 0.00 | 50 | 1015.5 |
| 20260510160342 | 77 | 293 | 1.7 | 7.0 | 0.00 | 0.00 | 0.00 | 50 | 1015.5 |
| 20260510155550 | 77 | 334 | 1.7 | 7.0 | 0.00 | 0.00 | 0.00 | 51 | 1015.6 |
| 20260510155048 | 77 | 207 | 5.2 | 7.0 | 0.00 | 0.00 | 0.00 | 52 | 1015.8 |
| 20260510154533 | 76 | 228 | 1.7 | 7.0 | 0.00 | 0.00 | 0.00 | 52 | 1015.8 |
| 20260510153947 | 75 | 204 | 5.2 | 7.0 | 0.00 | 0.00 | 0.00 | 53 | 1015.7 |
| 20260510153449 | 76 | 93 | 1.7 | 7.0 | 0.00 | 0.00 | 0.00 | 51 | 1015.9 |
| 20260510152917 | 76 | 222 | 3.5 | 6.1 | 0.00 | 0.00 | 0.00 | 53 | 1015.6 |
| 20260510152347 | 76 | 30 | 1.7 | 8.7 | 0.00 | 0.00 | 0.00 | 53 | 1015.8 |
| 20260510151847 | 76 | 234 | 3.5 | 8.7 | 0.00 | 0.00 | 0.00 | 55 | 1015.6 |
| 20260510151329 | 75 | 286 | 3.5 | 8.7 | 0.00 | 0.00 | 0.00 | 55 | 1015.8 |
| 20260510150746 | 73 | 239 | 5.2 | 7.8 | 0.00 | 0.00 | 0.00 | 58 | 1015.7 |
| 20260510150246 | 74 | 274 | 1.7 | 7.8 | 0.00 | 0.00 | 0.00 | 57 | 1015.8 |
| 20260510145716 | 74 | 241 | 2.6 | 7.8 | 0.00 | 0.00 | 0.00 | 58 | 1015.6 |
| 20260510144647 | 74 | 2 | 0.0 | 7.8 | 0.00 | 0.00 | 0.00 | 57 | 1015.3 |
| 20260510144116 | 73 | 194 | 4.3 | 7.8 | 0.00 | 0.00 | 0.00 | 60 | 1015.3 |
| 20260510143546 | 74 | 29 | 2.6 | 4.3 | 0.00 | 0.00 | 0.00 | 59 | 1015.2 |
| 20260510143047 | 73 | 240 | 2.6 | 5.2 | 0.00 | 0.00 | 0.00 | 58 | 1015.1 |
| 20260510142515 | 72 | 229 | 1.7 | 5.2 | 0.00 | 0.00 | 0.00 | 61 | 1015.2 |
| 20260510142207 | 72 | 15 | 2.6 | 4.3 | 0.00 | 0.00 | 0.00 | 66 | 1015.2 |
| 20260510141445 | 72 | 313 | 1.7 | 4.3 | 0.00 | 0.00 | 0.00 | 62 | 1015.1 |
| 20260510140914 | 72 | 60 | 0.0 | 5.2 | 0.00 | 0.00 | 0.00 | 67 | 1015.2 |
| 20260510140345 | 70 | 211 | 2.6 | 5.2 | 0.00 | 0.00 | 0.00 | 68 | 1015.3 |
| 20260510135844 | 70 | 209 | 1.7 | 5.2 | 0.00 | 0.00 | 0.00 | 69 | 1015.4 |
| 20260510135314 | 69 | 172 | 2.6 | 5.2 | 0.00 | 0.00 | 0.00 | 75 | 1015.3 |
| 20260510135002 | 69 | 213 | 1.7 | 3.5 | 0.00 | 0.00 | 0.00 | 75 | 1015.4 |
| 20260510134245 | 69 | 60 | 1.7 | 3.5 | 0.00 | 0.00 | 0.00 | 76 | 1015.2 |
| 20260510133714 | 69 | 226 | 0.0 | 3.5 | 0.00 | 0.00 | 0.00 | 73 | 1015.2 |
| 20260510133144 | 67 | 194 | 1.7 | 3.5 | 0.00 | 0.00 | 0.00 | 76 | 1015.3 |
| 20260510132644 | 67 | 185 | 2.6 | 3.5 | 0.00 | 0.00 | 0.00 | 75 | 1015.7 |
| 20260510132114 | 66 | 255 | 2.6 | 3.5 | 0.00 | 0.00 | 0.00 | 78 | 1015.7 |
| 20260510131544 | 66 | 307 | 2.6 | 3.5 | 0.00 | 0.00 | 0.00 | 78 | 1015.8 |
| 20260510131043 | 66 | 352 | 1.7 | 3.5 | 0.00 | 0.00 | 0.00 | 79 | 1015.7 |
| 20260510130514 | 65 | 263 | 0.0 | 3.5 | 0.00 | 0.00 | 0.00 | 82 | 1015.7 |
| 20260510125942 | 65 | 152 | 0.0 | 2.6 | 0.00 | 0.00 | 0.00 | 83 | 1015.9 |
| 20260510125442 | 64 | 105 | 1.7 | 2.6 | 0.00 | 0.00 | 0.00 | 83 | 1016.0 |
| 20260510124913 | 64 | 303 | 1.7 | 4.3 | 0.00 | 0.00 | 0.00 | 86 | 1015.7 |
| 20260510124341 | 64 | 26 | 1.7 | 4.3 | 0.00 | 0.00 | 0.00 | 87 | 1015.9 |
| 20260510123842 | 63 | 73 | 0.0 | 4.3 | 0.00 | 0.00 | 0.00 | 88 | 1015.8 |
| 20260510123313 | 61 | 31 | 1.7 | 4.3 | 0.00 | 0.00 | 0.00 | 91 | 1016.1 |
| 20260510122743 | 60 | 319 | 0.0 | 4.3 | 0.00 | 0.00 | 0.00 | 96 | 1015.7 |
| 20260510122242 | 60 | 45 | 0.0 | 4.3 | 0.00 | 0.00 | 0.00 | 100 | 1015.7 |
| 20260510121711 | 58 | 5 | 3.5 | 4.3 | 0.00 | 0.00 | 0.00 | 100 | 1015.7 |
| 20260510121141 | 57 | 304 | 1.7 | 3.5 | 0.00 | 0.00 | 0.00 | 100 | 1015.8 |
| 20260510120654 | 56 | 5 | 1.7 | 2.6 | 0.00 | 0.00 | 0.00 | 100 | 1015.7 |
| 20260510120112 | 57 | 31 | 1.7 | 2.6 | 0.00 | 0.00 | 0.00 | 100 | 1015.7 |
| 20260510115611 | 56 | 79 | 1.7 | 2.6 | 0.00 | 0.00 | 0.00 | 100 | 1015.8 |
| 20260510115040 | 57 | 85 | 0.9 | 1.7 | 0.00 | 0.00 | 0.00 | 100 | 1015.8 |
| 20260510114511 | 56 | 127 | 0.0 | 2.6 | 0.00 | 0.00 | 0.00 | 100 | 1015.7 |
| 20260510114010 | 55 | 32 | 1.7 | 2.6 | 0.00 | 0.00 | 0.00 | 100 | 1015.7 |
| 20260510113441 | 55 | 95 | 0.0 | 2.6 | 0.00 | 0.00 | 0.00 | 100 | 1015.2 |
| 20260510112409 | 55 | 54 | 0.0 | 1.7 | 0.00 | 0.00 | 0.00 | 100 | 1015.4 |
| 20260510111839 | 53 | 133 | 0.0 | 1.7 | 0.00 | 0.00 | 0.00 | 100 | 1015.1 |
| 20260510111309 | 53 | 23 | 0.9 | 1.7 | 0.00 | 0.00 | 0.00 | 100 | 1015.0 |
| 20260510110810 | 53 | 95 | 0.0 | 0.0 | 0.00 | 0.00 | 0.00 | 100 | 1014.9 |
| 20260510110240 | 50 | 30 | 0.0 | 0.9 | 0.00 | 0.00 | 0.00 | 100 | 1014.7 |
| 20260510105709 | 48 | 102 | 0.0 | 0.9 | 0.00 | 0.00 | 0.00 | 100 | 1014.4 |
| 20260510105208 | 47 | 105 | 0.0 | 1.7 | 0.00 | 0.00 | 0.00 | 100 | 1014.5 |
| 20260510104638 | 47 | 95 | 0.0 | 1.7 | 0.00 | 0.00 | 0.00 | 100 | 1014.6 |
| 20260510104108 | 47 | 85 | 0.9 | 1.7 | 0.00 | 0.00 | 0.00 | 100 | 1014.3 |
| 20260510103609 | 47 | 149 | 0.0 | 1.7 | 0.00 | 0.00 | 0.00 | 100 | 1014.4 |
| 20260510103039 | 46 | 75 | 0.0 | 2.6 | 0.00 | 0.00 | 0.00 | 100 | 1014.3 |
| 20260510102507 | 46 | 125 | 0.0 | 2.6 | 0.00 | 0.00 | 0.00 | 100 | 1014.4 |
| 20260510102007 | 47 | 34 | 1.7 | 2.6 | 0.00 | 0.00 | 0.00 | 100 | 1014.4 |
| 20260510101437 | 46 | 105 | 0.0 | 2.6 | 0.00 | 0.00 | 0.00 | 100 | 1014.2 |
| 20260510100907 | 46 | 158 | 0.9 | 1.7 | 0.00 | 0.00 | 0.00 | 100 | 1014.3 |
| 20260510100408 | 46 | 53 | 0.0 | 1.7 | 0.00 | 0.00 | 0.00 | 100 | 1014.2 |
| 20260510095837 | 46 | 166 | 0.0 | 2.6 | 0.00 | 0.00 | 0.00 | 100 | 1014.2 |
| 20260510095306 | 47 | 13 | 1.7 | 2.6 | 0.00 | 0.00 | 0.00 | 100 | 1014.2 |
| 20260510094806 | 46 | 81 | 0.0 | 1.7 | 0.00 | 0.00 | 0.00 | 100 | 1014.2 |
| 20260510094236 | 46 | 61 | 0.0 | 1.7 | 0.00 | 0.00 | 0.00 | 100 | 1014.2 |
| 20260510093707 | 45 | 63 | 0.0 | 1.7 | 0.00 | 0.00 | 0.00 | 100 | 1014.1 |
| 20260510093207 | 46 | 32 | 0.0 | 1.7 | 0.00 | 0.00 | 0.00 | 100 | 1014.0 |
| 20260510092857 | 46 | 109 | 0.0 | 1.7 | 0.00 | 0.00 | 0.00 | 100 | 1014.1 |
| 20260510092105 | 47 | 127 | 0.0 | 1.7 | 0.00 | 0.00 | 0.00 | 100 | 1014.0 |
| 20260510091605 | 46 | 91 | 0.0 | 1.7 | 0.00 | 0.00 | 0.00 | 100 | 1014.0 |
| 20260510091035 | 46 | 58 | 0.0 | 1.7 | 0.00 | 0.00 | 0.00 | 100 | 1013.8 |
| 20260510090518 | 47 | 20 | 0.0 | 1.7 | 0.00 | 0.00 | 0.00 | 100 | 1013.9 |
| 20260510090007 | 47 | 127 | 0.0 | 1.7 | 0.00 | 0.00 | 0.00 | 100 | 1013.9 |
| 20260510085435 | 47 | 52 | 0.0 | 1.7 | 0.00 | 0.00 | 0.00 | 100 | 1013.8 |
| 20260510084905 | 47 | 108 | 1.7 | 1.7 | 0.00 | 0.00 | 0.00 | 100 | 1013.7 |
| 20260510084405 | 47 | 58 | 0.0 | 1.7 | 0.00 | 0.00 | 0.00 | 100 | 1013.7 |
| 20260510083834 | 47 | 52 | 0.9 | 1.7 | 0.00 | 0.00 | 0.00 | 100 | 1013.6 |
| 20260510083304 | 47 | 62 | 0.0 | 1.7 | 0.00 | 0.00 | 0.00 | 100 | 1013.4 |
| 20260510082805 | 47 | 27 | 0.0 | 1.7 | 0.00 | 0.00 | 0.00 | 100 | 1013.2 |
| 20260510082234 | 47 | 27 | 0.0 | 1.7 | 0.00 | 0.00 | 0.00 | 100 | 1013.3 |
| 20260510081704 | 47 | 118 | 0.0 | 1.7 | 0.00 | 0.00 | 0.00 | 100 | 1013.3 |
| 20260510081203 | 47 | 358 | 0.0 | 1.7 | 0.00 | 0.00 | 0.00 | 100 | 1013.2 |
| 20260510080634 | 47 | 47 | 0.0 | 1.7 | 0.00 | 0.00 | 0.00 | 100 | 1013.2 |
| 20260510080103 | 48 | 9 | 0.0 | 1.7 | 0.00 | 0.00 | 0.00 | 100 | 1013.0 |
| 20260510075603 | 48 | 79 | 0.0 | 1.7 | 0.00 | 0.00 | 0.00 | 100 | 1012.9 |
| 20260510074503 | 48 | 83 | 0.0 | 0.9 | 0.00 | 0.00 | 0.00 | 100 | 1012.7 |
| 20260510074003 | 48 | 127 | 0.0 | 0.9 | 0.00 | 0.00 | 0.00 | 100 | 1012.9 |
| 20260510073432 | 48 | 128 | 0.0 | 1.7 | 0.00 | 0.00 | 0.00 | 100 | 1012.8 |
| 20260510072902 | 49 | 23 | 0.9 | 1.7 | 0.00 | 0.00 | 0.00 | 100 | 1012.8 |
| 20260510072402 | 48 | 118 | 0.0 | 1.7 | 0.00 | 0.00 | 0.00 | 100 | 1012.6 |
| 20260510071832 | 49 | 313 | 0.0 | 1.7 | 0.00 | 0.00 | 0.00 | 100 | 1012.8 |
| 20260510071301 | 49 | 126 | 0.0 | 1.7 | 0.00 | 0.00 | 0.00 | 100 | 1012.7 |
| 20260510070803 | 49 | 139 | 0.0 | 1.7 | 0.00 | 0.00 | 0.00 | 100 | 1012.6 |
| 20260510070231 | 49 | 132 | 0.0 | 1.7 | 0.00 | 0.00 | 0.00 | 100 | 1012.7 |
| 20260510065701 | 49 | 72 | 0.0 | 1.7 | 0.00 | 0.00 | 0.00 | 100 | 1012.6 |
| 20260510065420 | 49 | 108 | 0.0 | 1.7 | 0.00 | 0.00 | 0.00 | 100 | 1012.6 |
| 20260510064630 | 50 | 121 | 0.0 | 1.7 | 0.00 | 0.00 | 0.00 | 100 | 1012.6 |
| 20260510064101 | 50 | 9 | 0.0 | 1.7 | 0.00 | 0.00 | 0.00 | 100 | 1012.5 |
| 20260510063600 | 50 | 148 | 0.0 | 1.7 | 0.00 | 0.00 | 0.00 | 100 | 1012.6 |
| 20260510063032 | 50 | 91 | 0.0 | 1.7 | 0.00 | 0.00 | 0.00 | 100 | 1012.7 |
| 20260510062749 | 50 | 55 | 0.0 | 1.7 | 0.00 | 0.00 | 0.00 | 100 | 1012.3 |
| 20260510061959 | 50 | 118 | 0.0 | 1.7 | 0.00 | 0.00 | 0.00 | 100 | 1012.7 |
| 20260510061431 | 51 | 113 | 0.9 | 1.7 | 0.00 | 0.00 | 0.00 | 100 | 1012.7 |
| 20260510060930 | 51 | 30 | 0.0 | 1.7 | 0.00 | 0.00 | 0.00 | 100 | 1012.3 |
| 20260510060401 | 51 | 152 | 0.0 | 1.7 | 0.00 | 0.00 | 0.00 | 100 | 1012.4 |
| 20260510055829 | 51 | 119 | 0.0 | 1.7 | 0.00 | 0.00 | 0.00 | 100 | 1012.4 |
| 20260510055549 | 50 | 6 | 0.0 | 1.7 | 0.00 | 0.00 | 0.00 | 100 | 1012.4 |
| 20260510054759 | 51 | 21 | 0.0 | 1.7 | 0.00 | 0.00 | 0.00 | 100 | 1012.5 |
| 20260510054228 | 51 | 28 | 0.0 | 1.7 | 0.00 | 0.00 | 0.00 | 100 | 1012.5 |
| 20260510053959 | 51 | 146 | 0.0 | 1.7 | 0.00 | 0.00 | 0.00 | 100 | 1012.6 |
| 20260510053158 | 51 | 139 | 0.0 | 1.7 | 0.00 | 0.00 | 0.00 | 100 | 1012.5 |
| 20260510052629 | 51 | 149 | 0.0 | 1.7 | 0.00 | 0.00 | 0.00 | 100 | 1012.6 |
| 20260510052128 | 51 | 9 | 0.0 | 1.7 | 0.00 | 0.00 | 0.00 | 100 | 1012.5 |
| 20260510051559 | 51 | 105 | 0.0 | 1.7 | 0.00 | 0.00 | 0.00 | 100 | 1012.6 |
| 20260510051044 | 52 | 108 | 0.0 | 1.7 | 0.00 | 0.00 | 0.00 | 100 | 1012.7 |
| 20260510050529 | 52 | 115 | 0.9 | 1.7 | 0.00 | 0.00 | 0.00 | 100 | 1012.6 |
| 20260510050217 | 52 | 23 | 0.0 | 1.7 | 0.00 | 0.00 | 0.00 | 100 | 1012.7 |
| 20260510045427 | 53 | 23 | 0.0 | 1.7 | 0.00 | 0.00 | 0.00 | 100 | 1012.7 |
| 20260510044927 | 52 | 49 | 0.0 | 1.7 | 0.00 | 0.00 | 0.00 | 100 | 1012.8 |
| 20260510044358 | 52 | 127 | 0.0 | 1.7 | 0.00 | 0.00 | 0.00 | 100 | 1012.6 |
| 20260510043828 | 52 | 84 | 0.0 | 1.7 | 0.00 | 0.00 | 0.00 | 100 | 1012.7 |
| 20260510043326 | 53 | 30 | 0.0 | 1.7 | 0.00 | 0.00 | 0.00 | 100 | 1012.8 |
| 20260510042757 | 53 | 72 | 0.0 | 1.7 | 0.00 | 0.00 | 0.00 | 100 | 1012.5 |
| 20260510042226 | 53 | 36 | 0.0 | 0.9 | 0.00 | 0.00 | 0.00 | 100 | 1012.5 |
| 20260510041726 | 53 | 52 | 0.0 | 0.9 | 0.00 | 0.00 | 0.00 | 100 | 1012.7 |
| 20260510041415 | 53 | 122 | 0.0 | 0.9 | 0.00 | 0.00 | 0.00 | 100 | 1012.5 |
| 20260510040626 | 53 | 123 | 0.0 | 0.0 | 0.00 | 0.00 | 0.00 | 100 | 1012.6 |
| 20260510040139 | 53 | 14 | 0.0 | 0.0 | 0.00 | 0.00 | 0.00 | 100 | 1012.4 |
| 20260510035556 | 54 | 142 | 0.0 | 0.9 | 0.00 | 0.00 | 0.00 | 100 | 1012.7 |
| 20260510035033 | 54 | 15 | 0.0 | 1.7 | 0.00 | 0.00 | 0.00 | 100 | 1012.1 |
| 20260510034747 | 54 | 52 | 0.0 | 1.7 | 0.00 | 0.00 | 0.00 | 100 | 1012.4 |
| 20260510033955 | 55 | 25 | 0.9 | 1.7 | 0.00 | 0.00 | 0.00 | 100 | 1012.4 |
| 20260510033425 | 55 | 14 | 0.0 | 1.7 | 0.00 | 0.00 | 0.00 | 100 | 1012.4 |
| 20260510032925 | 55 | 21 | 0.0 | 1.7 | 0.00 | 0.00 | 0.00 | 100 | 1012.4 |
| 20260510032355 | 55 | 139 | 0.0 | 1.7 | 0.00 | 0.00 | 0.00 | 100 | 1012.4 |
| 20260510032105 | 55 | 24 | 0.0 | 1.7 | 0.00 | 0.00 | 0.00 | 100 | 1012.3 |
| 20260510031324 | 55 | 80 | 0.0 | 1.7 | 0.00 | 0.00 | 0.00 | 100 | 1012.2 |
| 20260510030754 | 55 | 139 | 0.0 | 1.7 | 0.00 | 0.00 | 0.00 | 100 | 1012.1 |
| 20260510030224 | 56 | 106 | 0.9 | 1.7 | 0.00 | 0.00 | 0.00 | 100 | 1012.3 |
| 20260510025725 | 56 | 136 | 0.0 | 1.7 | 0.00 | 0.00 | 0.00 | 100 | 1012.0 |
| 20260510025154 | 57 | 145 | 0.0 | 1.7 | 0.00 | 0.00 | 0.00 | 100 | 1012.1 |
| 20260510024624 | 57 | 132 | 0.9 | 1.7 | 0.00 | 0.00 | 0.00 | 100 | 1012.3 |
| 20260510024340 | 57 | 122 | 0.9 | 1.7 | 0.00 | 0.00 | 0.00 | 100 | 1012.1 |
| 20260510023553 | 57 | 114 | 0.0 | 1.7 | 0.00 | 0.00 | 0.00 | 100 | 1012.2 |
| 20260510023030 | 57 | 104 | 0.0 | 1.7 | 0.00 | 0.00 | 0.00 | 99 | 1012.2 |
| 20260510022523 | 57 | 147 | 0.0 | 1.7 | 0.00 | 0.00 | 0.00 | 99 | 1012.2 |
| 20260510021953 | 57 | 114 | 0.0 | 1.7 | 0.00 | 0.00 | 0.00 | 99 | 1012.0 |
| 20260510021424 | 57 | 151 | 0.0 | 1.7 | 0.00 | 0.00 | 0.00 | 98 | 1011.9 |
| 20260510020922 | 58 | 131 | 0.9 | 1.7 | 0.00 | 0.00 | 0.00 | 98 | 1012.0 |
| 20260510020353 | 57 | 103 | 0.9 | 1.7 | 0.00 | 0.00 | 0.00 | 97 | 1011.8 |
| 20260510015822 | 57 | 103 | 0.9 | 1.7 | 0.00 | 0.00 | 0.00 | 97 | 1012.0 |
| 20260510015324 | 57 | 94 | 0.0 | 1.7 | 0.00 | 0.00 | 0.00 | 97 | 1011.8 |
| 20260510014753 | 58 | 139 | 0.9 | 1.7 | 0.00 | 0.00 | 0.00 | 96 | 1012.0 |
| 20260510014222 | 58 | 134 | 0.9 | 1.7 | 0.00 | 0.00 | 0.00 | 95 | 1011.6 |
| 20260510013722 | 58 | 111 | 1.7 | 1.7 | 0.00 | 0.00 | 0.00 | 94 | 1011.7 |
| 20260510013151 | 59 | 88 | 1.7 | 1.7 | 0.00 | 0.00 | 0.00 | 94 | 1011.5 |
| 20260510012623 | 59 | 98 | 0.0 | 1.7 | 0.00 | 0.00 | 0.00 | 94 | 1011.5 |
| 20260510012121 | 59 | 102 | 1.7 | 1.7 | 0.00 | 0.00 | 0.00 | 93 | 1011.6 |
| 20260510011551 | 59 | 41 | 0.0 | 1.7 | 0.00 | 0.00 | 0.00 | 92 | 1011.4 |
| 20260510011023 | 59 | 132 | 0.0 | 1.7 | 0.00 | 0.00 | 0.00 | 92 | 1011.4 |
| 20260510010520 | 59 | 91 | 0.9 | 1.7 | 0.00 | 0.00 | 0.00 | 91 | 1011.5 |
| 20260510010214 | 60 | 105 | 0.0 | 1.7 | 0.00 | 0.00 | 0.00 | 90 | 1011.6 |
| 20260510005450 | 60 | 14 | 0.0 | 1.7 | 0.00 | 0.00 | 0.00 | 89 | 1011.4 |
| 20260510004921 | 61 | 10 | 0.0 | 1.7 | 0.00 | 0.00 | 0.00 | 88 | 1011.3 |
| 20260510004349 | 61 | 35 | 0.0 | 1.7 | 0.00 | 0.00 | 0.00 | 87 | 1011.2 |
| 20260510003850 | 62 | 48 | 0.0 | 1.7 | 0.00 | 0.00 | 0.00 | 86 | 1011.2 |
| 20260510003319 | 62 | 29 | 0.0 | 1.7 | 0.00 | 0.00 | 0.00 | 85 | 1011.2 |
| 20260510003013 | 62 | 36 | 0.0 | 1.7 | 0.00 | 0.00 | 0.00 | 84 | 1011.2 |
| 20260510002249 | 63 | 60 | 0.0 | 1.7 | 0.00 | 0.00 | 0.00 | 82 | 1011.2 |
| 20260510001721 | 64 | 44 | 0.9 | 2.6 | 0.00 | 0.00 | 0.00 | 81 | 1010.8 |
| 20260510001148 | 64 | 84 | 1.7 | 2.6 | 0.00 | 0.00 | 0.00 | 80 | 1011.1 |
| 20260510000908 | 65 | 53 | 1.7 | 3.5 | 0.00 | 0.00 | 0.00 | 79 | 1011.0 |
| 20260510000345 | 65 | 160 | 0.0 | 3.5 | 0.00 | 0.00 | 0.00 | 79 | 1010.8 |
| 20260509235548 | 65 | 170 | 0.0 | 4.3 | 0.00 | 0.00 | 0.00 | 78 | 1010.8 |
| 20260509235048 | 66 | 172 | 1.7 | 4.3 | 0.00 | 0.00 | 0.00 | 77 | 1010.9 |
| 20260509234520 | 65 | 172 | 0.9 | 5.2 | 0.00 | 0.00 | 0.00 | 77 | 1010.6 |
| 20260509233948 | 66 | 165 | 0.0 | 6.1 | 0.00 | 0.00 | 0.00 | 76 | 1010.9 |
| 20260509233449 | 66 | 207 | 3.5 | 6.1 | 0.00 | 0.00 | 0.00 | 75 | 1010.8 |
| 20260509232918 | 66 | 221 | 1.7 | 4.3 | 0.00 | 0.00 | 0.00 | 75 | 1010.7 |
| 20260509232624 | 66 | 229 | 0.0 | 4.3 | 0.00 | 0.00 | 0.00 | 75 | 1010.7 |
| 20260509231847 | 66 | 215 | 0.9 | 3.5 | 0.00 | 0.00 | 0.00 | 74 | 1010.9 |
| 20260509231318 | 67 | 197 | 1.7 | 5.2 | 0.00 | 0.00 | 0.00 | 73 | 1010.9 |
| 20260509230747 | 67 | 193 | 0.9 | 4.3 | 0.00 | 0.00 | 0.00 | 73 | 1010.6 |
| 20260509230246 | 68 | 190 | 1.7 | 12.2 | 0.00 | 0.00 | 0.00 | 72 | 1010.6 |
| 20260509225940 | 68 | 200 | 1.7 | 12.2 | 0.00 | 0.00 | 0.00 | 72 | 1010.6 |
| 20260509225146 | 68 | 179 | 1.7 | 5.2 | 0.00 | 0.00 | 0.00 | 71 | 1010.5 |
| 20260509224646 | 69 | 194 | 0.9 | 5.2 | 0.00 | 0.00 | 0.00 | 71 | 1010.5 |
| 20260509224340 | 69 | 170 | 1.7 | 5.2 | 0.00 | 0.00 | 0.00 | 70 | 1010.5 |
| 20260509223804 | 69 | 179 | 0.0 | 6.1 | 0.00 | 0.00 | 0.00 | 71 | 1010.8 |
| 20260509223045 | 69 | 197 | 2.6 | 6.1 | 0.00 | 0.00 | 0.00 | 72 | 1010.7 |
| 20260509222515 | 70 | 85 | 0.0 | 5.2 | 0.00 | 0.00 | 0.00 | 69 | 1010.6 |
| 20260509221947 | 71 | 224 | 1.7 | 4.3 | 0.00 | 0.00 | 0.00 | 69 | 1010.5 |
| 20260509221445 | 71 | 100 | 2.6 | 4.3 | 0.00 | 0.00 | 0.00 | 69 | 1010.7 |
| 20260509220916 | 71 | 55 | 1.7 | 4.3 | 0.00 | 0.00 | 0.00 | 69 | 1010.7 |
| 20260509220609 | 71 | 202 | 0.0 | 4.3 | 0.00 | 0.00 | 0.00 | 70 | 1010.6 |
| 20260509215844 | 71 | 86 | 1.7 | 4.3 | 0.00 | 0.00 | 0.00 | 69 | 1010.6 |
| 20260509215314 | 70 | 78 | 3.5 | 5.2 | 0.00 | 0.00 | 0.00 | 69 | 1010.7 |
| 20260509214744 | 69 | 75 | 2.6 | 8.7 | 0.00 | 0.00 | 0.00 | 71 | 1010.5 |
| 20260509214245 | 70 | 49 | 1.7 | 8.7 | 0.00 | 0.00 | 0.00 | 69 | 1010.7 |
| 20260509213714 | 70 | 99 | 1.7 | 4.3 | 0.00 | 0.00 | 0.00 | 68 | 1010.7 |
| 20260509213144 | 70 | 40 | 1.7 | 4.3 | 0.00 | 0.00 | 0.00 | 68 | 1010.5 |
| 20260509212643 | 70 | 39 | 2.6 | 3.5 | 0.00 | 0.00 | 0.00 | 68 | 1010.4 |
| 20260509212113 | 70 | 51 | 1.7 | 3.5 | 0.00 | 0.00 | 0.00 | 67 | 1010.5 |
| 20260509211804 | 71 | 145 | 1.7 | 3.5 | 0.00 | 0.00 | 0.00 | 68 | 1010.4 |
| 20260509211043 | 72 | 116 | 2.6 | 8.7 | 0.00 | 0.00 | 0.00 | 66 | 1010.5 |
| 20260509210513 | 70 | 230 | 1.7 | 8.7 | 0.00 | 0.00 | 0.00 | 68 | 1010.2 |
| 20260509205943 | 69 | 106 | 1.7 | 5.2 | 0.00 | 0.00 | 0.00 | 70 | 1010.5 |
| 20260509205443 | 69 | 33 | 1.7 | 5.2 | 0.00 | 0.00 | 0.00 | 70 | 1010.3 |
| 20260509204913 | 71 | 53 | 1.7 | 5.2 | 0.00 | 0.00 | 0.00 | 70 | 1010.3 |
| 20260509204342 | 70 | 305 | 1.7 | 6.1 | 0.00 | 0.00 | 0.00 | 71 | 1010.4 |
| 20260509203842 | 69 | 80 | 1.7 | 7.0 | 0.00 | 0.00 | 0.00 | 71 | 1010.4 |
| 20260509203312 | 69 | 338 | 1.7 | 7.0 | 0.00 | 0.00 | 0.00 | 73 | 1010.6 |
| 20260509202742 | 69 | 79 | 3.5 | 4.3 | 0.00 | 0.00 | 0.00 | 77 | 1010.6 |
| 20260509202241 | 68 | 352 | 0.9 | 7.0 | 0.00 | 0.00 | 0.00 | 78 | 1010.8 |
| 20260509201713 | 68 | 357 | 0.9 | 7.0 | 0.00 | 0.00 | 0.00 | 79 | 1010.7 |
| 20260509201141 | 68 | 350 | 3.5 | 5.2 | 0.00 | 0.00 | 0.00 | 78 | 1010.9 |
| 20260509200641 | 67 | 354 | 2.6 | 5.2 | 0.00 | 0.00 | 0.00 | 80 | 1011.0 |
| 20260509200111 | 68 | 12 | 1.7 | 5.2 | 0.00 | 0.00 | 0.00 | 79 | 1010.6 |
| 20260509195800 | 68 | 4 | 4.3 | 6.1 | 0.00 | 0.00 | 0.00 | 76 | 1010.9 |
| 20260509195040 | 69 | 357 | 1.7 | 6.1 | 0.00 | 0.00 | 0.00 | 73 | 1010.9 |
| 20260509194510 | 69 | 354 | 2.6 | 4.3 | 0.00 | 0.00 | 0.00 | 74 | 1010.9 |
| 20260509194011 | 69 | 4 | 1.7 | 7.0 | 0.00 | 0.00 | 0.00 | 72 | 1011.0 |
| 20260509193442 | 68 | 5 | 4.3 | 7.0 | 0.00 | 0.00 | 0.00 | 72 | 1011.1 |
| 20260509193136 | 69 | 18 | 2.6 | 3.5 | 0.00 | 0.00 | 0.00 | 71 | 1011.0 |
| 20260509192410 | 69 | 24 | 0.9 | 3.5 | 0.00 | 0.00 | 0.00 | 71 | 1011.1 |
| 20260509191840 | 67 | 32 | 2.6 | 3.5 | 0.00 | 0.00 | 0.00 | 71 | 1010.9 |
| 20260509191309 | 66 | 351 | 1.7 | 3.5 | 0.00 | 0.00 | 0.00 | 75 | 1011.3 |
| 20260509190809 | 66 | 36 | 1.7 | 3.5 | 0.00 | 0.00 | 0.00 | 78 | 1011.4 |
| 20260509190501 | 65 | 63 | 1.7 | 3.5 | 0.00 | 0.00 | 0.00 | 81 | 1011.6 |
| 20260509185710 | 65 | 7 | 1.7 | 2.6 | 0.00 | 0.00 | 0.00 | 83 | 1012.0 |
| 20260509185209 | 65 | 73 | 1.7 | 2.6 | 0.00 | 0.00 | 0.00 | 80 | 1011.8 |
| 20260509184639 | 67 | 43 | 0.9 | 2.6 | 0.00 | 0.00 | 0.00 | 75 | 1012.0 |
| 20260509184108 | 67 | 204 | 0.0 | 3.5 | 0.00 | 0.00 | 0.00 | 72 | 1012.0 |
| 20260509183038 | 67 | 220 | 1.7 | 3.5 | 0.00 | 0.00 | 0.00 | 68 | 1011.9 |
| 20260509182508 | 69 | 184 | 1.7 | 4.3 | 0.00 | 0.00 | 0.00 | 71 | 1012.0 |
| 20260509182021 | 70 | 186 | 1.7 | 6.1 | 0.00 | 0.00 | 0.00 | 60 | 1011.9 |
| 20260509181438 | 70 | 188 | 4.3 | 9.6 | 0.00 | 0.00 | 0.00 | 59 | 1011.9 |
| 20260509180907 | 70 | 201 | 1.7 | 13.9 | 0.00 | 0.00 | 0.00 | 59 | 1012.1 |
| 20260509180409 | 69 | 175 | 4.3 | 13.9 | 0.00 | 0.00 | 0.00 | 59 | 1012.3 |
| 20260509175837 | 70 | 247 | 4.3 | 11.3 | 0.00 | 0.00 | 0.00 | 59 | 1012.2 |
| 20260509175540 | 69 | 192 | 0.9 | 7.0 | 0.00 | 0.00 | 0.00 | 60 | 1012.3 |
| 20260509174807 | 69 | 244 | 3.5 | 9.6 | 0.00 | 0.00 | 0.00 | 59 | 1012.5 |
| 20260509174237 | 69 | 167 | 1.7 | 9.6 | 0.00 | 0.00 | 0.00 | 59 | 1012.2 |
| 20260509173706 | 69 | 225 | 2.6 | 11.3 | 0.00 | 0.00 | 0.00 | 59 | 1012.3 |
| 20260509173206 | 69 | 225 | 5.2 | 11.3 | 0.00 | 0.00 | 0.00 | 59 | 1012.4 |
| 20260509172637 | 70 | 257 | 2.6 | 12.2 | 0.00 | 0.00 | 0.00 | 60 | 1012.2 |
| 20260509172107 | 69 | 210 | 4.3 | 12.2 | 0.00 | 0.00 | 0.00 | 58 | 1012.2 |
| 20260509171605 | 70 | 199 | 3.5 | 9.6 | 0.00 | 0.00 | 0.00 | 58 | 1012.4 |
| 20260509171256 | 70 | 230 | 0.9 | 13.9 | 0.00 | 0.00 | 0.00 | 57 | 1012.5 |
| 20260509170507 | 69 | 230 | 13.0 | 13.9 | 0.00 | 0.00 | 0.00 | 57 | 1012.4 |
| 20260509170006 | 69 | 250 | 4.3 | 13.9 | 0.00 | 0.00 | 0.00 | 57 | 1012.6 |
| 20260509165435 | 69 | 194 | 7.0 | 13.9 | 0.00 | 0.00 | 0.00 | 57 | 1012.3 |
| 20260509165127 | 69 | 223 | 5.2 | 17.4 | 0.00 | 0.00 | 0.00 | 57 | 1012.5 |